| time (UTC) | temp F | wind direction | speed MPH | gust MPH | rain 1hr in | rain 24hr in | rain mn in | humidity % | barometer mb |
| 20260902031555 | 77 | 207 | 1.0 | 3.0 | 0.00 | 0.00 | 0.00 | 94 | 1011.7 |
| 20260902030054 | 77 | 324 | 0.0 | 1.0 | 0.00 | 0.00 | 0.00 | 95 | 1011.6 |
| 20260902024555 | 77 | 323 | 0.0 | 0.0 | 0.00 | 0.00 | 0.00 | 95 | 1011.7 |
| 20260902023059 | 77 | 324 | 0.0 | 0.0 | 0.00 | 0.00 | 0.00 | 95 | 1011.7 |
| 20260902021558 | 77 | 323 | 0.0 | 0.0 | 0.00 | 0.00 | 0.00 | 95 | 1011.7 |
| 20260902020054 | 77 | 324 | 0.0 | 0.0 | 0.00 | 0.00 | 0.00 | 95 | 1011.5 |
| 20260902014557 | 77 | 323 | 0.0 | 0.0 | 0.00 | 0.00 | 0.00 | 95 | 1011.5 |
| 20260902013055 | 77 | 324 | 0.0 | 0.0 | 0.00 | 0.00 | 0.00 | 95 | 1011.5 |
| 20260902011600 | 77 | 323 | 0.0 | 0.0 | 0.00 | 0.00 | 0.00 | 95 | 1011.3 |
| 20260902010118 | 77 | 323 | 0.0 | 0.0 | 0.00 | 0.00 | 0.00 | 94 | 1011.2 |
| 20260902004557 | 78 | 323 | 0.0 | 0.0 | 0.00 | 0.00 | 0.00 | 94 | 1011.2 |
| 20260902003055 | 78 | 324 | 0.0 | 0.0 | 0.00 | 0.00 | 0.00 | 93 | 1010.9 |
| 20260902001555 | 79 | 324 | 0.0 | 0.0 | 0.00 | 0.00 | 0.00 | 92 | 1011.1 |
| 20260902000055 | 79 | 323 | 0.0 | 0.0 | 0.00 | 0.00 | 0.00 | 90 | 1011.2 |
| 20260901234555 | 80 | 324 | 0.0 | 0.0 | 0.00 | 0.00 | 0.00 | 90 | 1011.3 |
| 20260901233101 | 81 | 323 | 0.0 | 0.0 | 0.00 | 0.00 | 0.00 | 89 | 1011.3 |
| 20260901231557 | 82 | 324 | 0.0 | 0.0 | 0.00 | 0.00 | 0.00 | 86 | 1011.4 |
| 20260901230055 | 83 | 323 | 0.0 | 0.0 | 0.00 | 0.00 | 0.00 | 84 | 1011.5 |
| 20260901224556 | 83 | 323 | 0.0 | 2.0 | 0.00 | 0.00 | 0.00 | 82 | 1011.5 |
| 20260901223057 | 84 | 323 | 0.0 | 0.0 | 0.00 | 0.00 | 0.00 | 83 | 1011.5 |
| 20260901221605 | 84 | 324 | 0.0 | 2.0 | 0.00 | 0.00 | 0.00 | 82 | 1011.5 |
| 20260901220055 | 84 | 323 | 0.0 | 2.0 | 0.00 | 0.00 | 0.00 | 82 | 1011.4 |
| 20260901214556 | 84 | 323 | 0.0 | 2.0 | 0.00 | 0.00 | 0.00 | 81 | 1011.4 |
| 20260901213100 | 83 | 324 | 1.0 | 2.0 | 0.00 | 0.00 | 0.00 | 82 | 1011.5 |
| 20260901211556 | 83 | 323 | 0.0 | 4.0 | 0.00 | 0.00 | 0.00 | 81 | 1011.7 |
| 20260901210056 | 82 | 324 | 0.0 | 4.0 | 0.00 | 0.00 | 0.00 | 81 | 1011.8 |
| 20260901204555 | 84 | 359 | 1.0 | 4.0 | 0.00 | 0.00 | 0.00 | 79 | 1011.7 |
| 20260901203102 | 84 | 14 | 0.0 | 3.0 | 0.00 | 0.00 | 0.00 | 79 | 1011.6 |
| 20260901201556 | 84 | 14 | 1.0 | 3.0 | 0.00 | 0.00 | 0.00 | 78 | 1011.7 |
| 20260901200106 | 83 | 14 | 2.0 | 4.0 | 0.00 | 0.00 | 0.00 | 79 | 1011.7 |
| 20260901194603 | 82 | 14 | 0.0 | 2.0 | 0.00 | 0.01 | 0.00 | 79 | 1011.7 |
| 20260901193102 | 81 | 14 | 0.0 | 3.0 | 0.00 | 0.01 | 0.00 | 82 | 1011.9 |
| 20260901191556 | 81 | 334 | 0.0 | 3.0 | 0.00 | 0.01 | 0.00 | 82 | 1012.3 |
| 20260901190112 | 80 | 58 | 1.0 | 5.0 | 0.00 | 0.01 | 0.00 | 83 | 1012.3 |
| 20260901184605 | 80 | 15 | 1.0 | 5.0 | 0.00 | 0.03 | 0.00 | 84 | 1012.6 |
| 20260901183057 | 78 | 319 | 0.0 | 4.0 | 0.00 | 0.03 | 0.00 | 85 | 1012.6 |
| 20260901181559 | 79 | 15 | 0.0 | 6.0 | 0.00 | 0.03 | 0.00 | 84 | 1012.6 |
| 20260901180100 | 80 | 300 | 1.0 | 4.0 | 0.00 | 0.03 | 0.00 | 83 | 1012.4 |
| 20260901174604 | 79 | 339 | 3.0 | 6.0 | 0.00 | 0.04 | 0.00 | 83 | 1012.5 |
| 20260901173059 | 77 | 323 | 0.0 | 4.0 | 0.00 | 0.04 | 0.00 | 86 | 1012.5 |
| 20260901171556 | 78 | 254 | 0.0 | 4.0 | 0.00 | 0.04 | 0.00 | 84 | 1012.6 |
| 20260901170156 | 79 | 317 | 1.0 | 4.0 | 0.00 | 0.04 | 0.00 | 83 | 1012.7 |
| 20260901164557 | 79 | 311 | 1.0 | 4.0 | 0.00 | 0.07 | 0.00 | 84 | 1012.8 |
| 20260901163103 | 79 | 297 | 1.0 | 3.0 | 0.00 | 0.07 | 0.00 | 84 | 1012.8 |
| 20260901161613 | 78 | 297 | 1.0 | 3.0 | 0.00 | 0.07 | 0.00 | 85 | 1012.9 |
| 20260901160057 | 78 | 297 | 0.0 | 3.0 | 0.00 | 0.07 | 0.00 | 85 | 1012.8 |
| 20260901154605 | 77 | 297 | 0.0 | 2.0 | 0.00 | 0.28 | 0.00 | 85 | 1012.9 |
| 20260901153122 | 78 | 297 | 0.0 | 4.0 | 0.00 | 0.28 | 0.00 | 85 | 1012.8 |
| 20260901151558 | 78 | 298 | 0.0 | 4.0 | 0.00 | 0.28 | 0.00 | 86 | 1012.7 |
| 20260901150058 | 77 | 331 | 0.0 | 2.0 | 0.00 | 0.28 | 0.00 | 87 | 1012.9 |
| 20260901144559 | 78 | 331 | 0.0 | 3.0 | 0.00 | 0.31 | 0.00 | 85 | 1012.8 |
| 20260901143059 | 77 | 331 | 0.0 | 4.0 | 0.00 | 0.31 | 0.00 | 86 | 1012.6 |
| 20260901141558 | 77 | 331 | 0.0 | 3.0 | 0.00 | 0.31 | 0.00 | 86 | 1012.5 |
| 20260901140058 | 77 | 293 | 1.0 | 3.0 | 0.00 | 0.31 | 0.00 | 87 | 1012.5 |
| 20260901134558 | 77 | 293 | 1.0 | 3.0 | 0.00 | 0.31 | 0.00 | 87 | 1012.5 |
| 20260901133058 | 77 | 293 | 0.0 | 3.0 | 0.00 | 0.31 | 0.00 | 86 | 1012.6 |
| 20260901131620 | 77 | 202 | 0.0 | 2.0 | 0.00 | 0.31 | 0.00 | 89 | 1012.5 |
| 20260901124602 | 75 | 139 | 0.0 | 2.0 | 0.00 | 0.32 | 0.00 | 91 | 1012.8 |
| 20260901123058 | 74 | 139 | 0.0 | 2.0 | 0.00 | 0.32 | 0.00 | 94 | 1012.8 |
| 20260901121558 | 73 | 139 | 0.0 | 0.0 | 0.00 | 0.32 | 0.00 | 95 | 1012.6 |
| 20260901120058 | 71 | 182 | 0.0 | 1.0 | 0.00 | 0.32 | 0.00 | 95 | 1012.6 |
| 20260901114558 | 71 | 182 | 0.0 | 0.0 | 0.00 | 0.37 | 0.00 | 94 | 1012.3 |
| 20260901113107 | 71 | 182 | 0.0 | 0.0 | 0.00 | 0.37 | 0.00 | 94 | 1012.2 |
| 20260901111606 | 71 | 182 | 0.0 | 3.0 | 0.00 | 0.37 | 0.00 | 94 | 1012.1 |
| 20260901110106 | 71 | 182 | 0.0 | 1.0 | 0.00 | 0.37 | 0.00 | 94 | 1012.0 |
| 20260901104604 | 71 | 143 | 0.0 | 3.0 | 0.00 | 0.51 | 0.00 | 94 | 1011.8 |
| 20260901103058 | 71 | 143 | 0.0 | 2.0 | 0.00 | 0.51 | 0.00 | 94 | 1011.8 |
| 20260901101607 | 71 | 143 | 0.0 | 0.0 | 0.00 | 0.51 | 0.00 | 93 | 1011.7 |
| 20260901100109 | 71 | 143 | 0.0 | 0.0 | 0.00 | 0.51 | 0.00 | 93 | 1011.7 |
| 20260901094603 | 72 | 143 | 0.0 | 3.0 | 0.00 | 0.52 | 0.00 | 93 | 1011.6 |
| 20260901093058 | 72 | 143 | 0.0 | 3.0 | 0.00 | 0.52 | 0.00 | 93 | 1011.7 |
| 20260901091559 | 72 | 143 | 0.0 | 3.0 | 0.00 | 0.52 | 0.00 | 92 | 1011.6 |
| 20260901084609 | 71 | 142 | 0.0 | 3.0 | 0.00 | 0.53 | 0.00 | 92 | 1011.4 |
| 20260901083100 | 72 | 142 | 0.0 | 4.0 | 0.00 | 0.53 | 0.00 | 91 | 1011.4 |
| 20260901081605 | 72 | 142 | 0.0 | 3.0 | 0.00 | 0.53 | 0.00 | 90 | 1011.2 |
| 20260901080059 | 72 | 142 | 0.0 | 4.0 | 0.00 | 0.53 | 0.00 | 90 | 1011.2 |
| 20260901074559 | 72 | 142 | 0.0 | 6.0 | 0.00 | 0.53 | 0.00 | 90 | 1011.2 |
| 20260901073059 | 72 | 139 | 1.0 | 6.0 | 0.00 | 0.53 | 0.00 | 89 | 1011.3 |
| 20260901071559 | 72 | 143 | 2.0 | 5.0 | 0.00 | 0.53 | 0.00 | 89 | 1011.4 |
| 20260901070059 | 72 | 144 | 2.0 | 9.0 | 0.00 | 0.53 | 0.00 | 89 | 1011.2 |
| 20260901064559 | 72 | 198 | 1.0 | 5.0 | 0.00 | 0.56 | 0.00 | 88 | 1011.2 |
| 20260901063102 | 72 | 142 | 1.0 | 9.0 | 0.00 | 0.56 | 0.00 | 88 | 1011.3 |
| 20260901061613 | 73 | 160 | 1.0 | 6.0 | 0.00 | 0.56 | 0.00 | 87 | 1011.6 |
| 20260901060103 | 73 | 145 | 3.0 | 9.0 | 0.00 | 0.56 | 0.00 | 87 | 1011.6 |
| 20260901054609 | 72 | 155 | 2.0 | 8.0 | 0.00 | 0.62 | 0.00 | 87 | 1011.8 |
| 20260901053122 | 72 | 159 | 3.0 | 9.0 | 0.00 | 0.62 | 0.00 | 87 | 1012.0 |
| 20260901051603 | 72 | 167 | 4.0 | 11.0 | 0.00 | 0.62 | 0.00 | 87 | 1012.1 |
| 20260901050100 | 72 | 152 | 3.0 | 5.0 | 0.00 | 0.62 | 0.00 | 87 | 1012.1 |
| 20260901044559 | 72 | 156 | 2.0 | 8.0 | 0.00 | 0.62 | 0.00 | 87 | 1012.1 |
| 20260901043102 | 72 | 156 | 3.0 | 7.0 | 0.00 | 0.62 | 0.00 | 88 | 1012.0 |
| 20260901041609 | 72 | 158 | 0.0 | 6.0 | 0.00 | 0.62 | 0.00 | 89 | 1012.1 |
| 20260901040121 | 72 | 151 | 2.0 | 6.0 | 0.00 | 0.62 | 0.00 | 88 | 1012.2 |
| 20260901040002 | 72 | 151 | 1.0 | 6.0 | 0.00 | 0.62 | 0.00 | 88 | 1012.1 |
| 20260901034600 | 72 | 164 | 1.0 | 7.0 | 0.00 | 0.62 | 0.62 | 88 | 1012.2 |
| 20260901033115 | 72 | 176 | 1.0 | 10.0 | 0.00 | 0.62 | 0.62 | 88 | 1012.3 |